TimeCST,TemperatureF,Dew PointF,Humidity,Sea Level PressureIn,VisibilityMPH,Wind Direction,Wind SpeedMPH,Gust SpeedMPH,PrecipitationIn,Events,Conditions,WindDirDegrees,DateUTC
12:15 AM,12.2,1.4,62,30.59,10.0,WNW,4.6,-,N/A,,Overcast,290,2013-11-24 06:15:00
12:35 AM,12.2,3.2,67,30.59,10.0,WNW,5.8,-,N/A,,Overcast,300,2013-11-24 06:35:00
12:55 AM,12.2,3.2,67,30.59,10.0,WNW,5.8,-,N/A,,Overcast,300,2013-11-24 06:55:00
1:15 AM,12.2,3.2,67,30.59,10.0,WNW,3.5,-,N/A,,Mostly Cloudy,290,2013-11-24 07:15:00
1:35 AM,12.2,3.2,67,30.60,10.0,West,8.1,-,N/A,,Overcast,280,2013-11-24 07:35:00
1:55 AM,12.2,3.2,67,30.59,10.0,NW,6.9,-,N/A,,Overcast,310,2013-11-24 07:55:00
2:15 AM,12.2,1.4,62,30.59,10.0,WNW,5.8,-,N/A,,Overcast,290,2013-11-24 08:15:00
2:35 AM,12.2,3.2,67,30.59,10.0,West,4.6,-,N/A,,Overcast,270,2013-11-24 08:35:00
2:55 AM,12.2,3.2,67,30.59,10.0,WNW,4.6,-,N/A,,Overcast,300,2013-11-24 08:55:00
3:15 AM,12.2,3.2,67,30.58,10.0,WNW,5.8,-,N/A,,Overcast,300,2013-11-24 09:15:00
3:35 AM,12.2,5.0,73,30.58,10.0,WNW,4.6,-,N/A,,Overcast,300,2013-11-24 09:35:00
3:55 AM,12.2,5.0,73,30.58,10.0,WNW,5.8,-,N/A,,Overcast,290,2013-11-24 09:55:00
4:15 AM,12.2,3.2,67,30.58,10.0,WNW,4.6,-,N/A,,Overcast,300,2013-11-24 10:15:00
4:35 AM,12.2,5.0,73,30.58,10.0,NW,4.6,-,N/A,,Overcast,310,2013-11-24 10:35:00
4:55 AM,12.2,6.8,79,30.58,10.0,WNW,4.6,-,N/A,,Overcast,300,2013-11-24 10:55:00
5:15 AM,12.2,5.0,73,30.58,10.0,NW,5.8,-,N/A,,Overcast,310,2013-11-24 11:15:00
5:35 AM,12.2,6.8,79,30.58,10.0,West,5.8,-,N/A,,Overcast,280,2013-11-24 11:35:00
5:55 AM,12.2,6.8,79,30.58,10.0,WNW,4.6,-,N/A,,Overcast,290,2013-11-24 11:55:00
6:15 AM,12.2,5.0,73,30.58,10.0,WNW,4.6,-,N/A,,Overcast,290,2013-11-24 12:15:00
6:35 AM,12.2,3.2,67,30.58,10.0,WNW,3.5,-,N/A,,Overcast,300,2013-11-24 12:35:00
6:55 AM,10.4,5.0,79,30.57,10.0,West,3.5,-,N/A,,Mostly Cloudy,280,2013-11-24 12:55:00
7:15 AM,10.4,5.0,79,30.58,10.0,Calm,Calm,-,N/A,,Partly Cloudy,0,2013-11-24 13:15:00
7:35 AM,10.4,6.8,85,30.58,10.0,WNW,4.6,-,N/A,,Clear,290,2013-11-24 13:35:00
7:55 AM,10.4,5.0,79,30.58,10.0,WNW,3.5,-,N/A,,Clear,290,2013-11-24 13:55:00
8:15 AM,10.4,6.8,85,30.58,10.0,West,3.5,-,N/A,,Clear,270,2013-11-24 14:15:00
8:35 AM,12.2,5.0,73,30.58,10.0,West,3.5,-,N/A,,Clear,270,2013-11-24 14:35:00
8:55 AM,12.2,6.8,79,30.59,10.0,West,4.6,-,N/A,,Clear,280,2013-11-24 14:55:00
9:15 AM,14.0,6.8,73,30.58,10.0,West,5.8,-,N/A,,Clear,260,2013-11-24 15:15:00
9:35 AM,15.8,6.8,68,30.57,10.0,West,4.6,-,N/A,,Clear,280,2013-11-24 15:35:00
9:55 AM,15.8,3.2,58,30.57,10.0,West,6.9,-,N/A,,Clear,260,2013-11-24 15:55:00
10:15 AM,17.6,5.0,58,30.56,10.0,West,5.8,-,N/A,,Clear,270,2013-11-24 16:15:00
10:35 AM,17.6,3.2,53,30.55,10.0,WNW,8.1,-,N/A,,Clear,290,2013-11-24 16:35:00
10:55 AM,17.6,3.2,53,30.53,10.0,SW,8.1,-,N/A,,Clear,230,2013-11-24 16:55:00
11:15 AM,17.6,5.0,58,30.52,10.0,WSW,5.8,-,N/A,,Mostly Cloudy,240,2013-11-24 17:15:00
11:35 AM,19.4,3.2,49,30.51,10.0,SW,9.2,16.1,N/A,,Mostly Cloudy,230,2013-11-24 17:35:00
11:55 AM,17.6,3.2,53,30.49,10.0,West,9.2,-,N/A,,Overcast,280,2013-11-24 17:55:00
12:15 PM,19.4,3.2,49,30.47,10.0,West,3.5,-,N/A,,Overcast,260,2013-11-24 18:15:00
12:35 PM,19.4,1.4,46,30.47,10.0,West,6.9,-,N/A,,Overcast,280,2013-11-24 18:35:00
12:55 PM,19.4,1.4,46,30.46,10.0,SW,11.5,-,N/A,,Overcast,230,2013-11-24 18:55:00
1:15 PM,19.4,1.4,46,30.44,10.0,SSW,10.4,-,N/A,,Overcast,210,2013-11-24 19:15:00
1:35 PM,19.4,1.4,46,30.42,10.0,West,8.1,-,N/A,,Overcast,260,2013-11-24 19:35:00
1:55 PM,19.4,-0.4,42,30.42,10.0,WSW,6.9,-,N/A,,Overcast,250,2013-11-24 19:55:00
2:15 PM,19.4,-0.4,42,30.40,10.0,SW,12.7,-,N/A,,Overcast,230,2013-11-24 20:15:00
2:35 PM,19.4,-0.4,42,30.39,10.0,SW,8.1,-,N/A,,Overcast,220,2013-11-24 20:35:00
2:55 PM,19.4,-0.4,42,30.38,10.0,SW,8.1,18.4,N/A,,Overcast,220,2013-11-24 20:55:00
3:15 PM,19.4,-0.4,42,30.37,10.0,SSW,11.5,16.1,N/A,,Overcast,210,2013-11-24 21:15:00
3:35 PM,19.4,1.4,46,30.36,10.0,SW,9.2,16.1,N/A,,Mostly Cloudy,220,2013-11-24 21:35:00
3:55 PM,19.4,-0.4,42,30.34,10.0,WSW,11.5,17.3,N/A,,Scattered Clouds,240,2013-11-24 21:55:00
4:15 PM,19.4,1.4,46,30.33,10.0,SW,9.2,19.6,N/A,,Scattered Clouds,220,2013-11-24 22:15:00
4:35 PM,19.4,3.2,49,30.31,10.0,SW,10.4,17.3,N/A,,Scattered Clouds,220,2013-11-24 22:35:00
4:55 PM,21.2,3.2,46,30.29,10.0,SW,16.1,-,N/A,,Partly Cloudy,220,2013-11-24 22:55:00
5:15 PM,21.2,3.2,46,30.28,10.0,SW,15.0,18.4,N/A,,Clear,220,2013-11-24 23:15:00
5:35 PM,21.2,3.2,46,30.26,10.0,SW,12.7,20.7,N/A,,Clear,220,2013-11-24 23:35:00
5:55 PM,21.2,3.2,46,30.24,10.0,SW,16.1,21.9,N/A,,Clear,220,2013-11-24 23:55:00
6:15 PM,23.0,5.0,46,30.22,10.0,SW,16.1,28.8,N/A,,Clear,230,2013-11-25 00:15:00
6:35 PM,23.0,3.2,43,30.21,10.0,SW,16.1,24.2,N/A,,Clear,230,2013-11-25 00:35:00
6:55 PM,24.8,6.8,46,30.18,10.0,SW,20.7,29.9,N/A,,Clear,230,2013-11-25 00:55:00
7:15 PM,24.8,5.0,43,30.17,10.0,SW,23.0,34.5,N/A,,Clear,230,2013-11-25 01:15:00
7:35 PM,24.8,5.0,43,30.15,10.0,SW,23.0,32.2,N/A,,Clear,230,2013-11-25 01:35:00
7:55 PM,24.8,5.0,43,30.14,10.0,SW,17.3,32.2,N/A,,Clear,230,2013-11-25 01:55:00
8:15 PM,24.8,3.2,40,30.12,10.0,SW,20.7,31.1,N/A,,Clear,230,2013-11-25 02:15:00
8:35 PM,24.8,3.2,40,30.11,10.0,SW,16.1,26.5,N/A,,Clear,230,2013-11-25 02:35:00
8:55 PM,24.8,3.2,40,30.12,10.0,WSW,12.7,23.0,N/A,,Clear,240,2013-11-25 02:55:00
9:15 PM,24.8,5.0,43,30.10,10.0,WSW,16.1,25.3,N/A,,Clear,240,2013-11-25 03:15:00
9:35 PM,24.8,3.2,40,30.09,10.0,WSW,16.1,25.3,N/A,,Clear,240,2013-11-25 03:35:00
9:55 PM,24.8,5.0,43,30.06,10.0,SW,19.6,31.1,N/A,,Clear,230,2013-11-25 03:55:00
10:15 PM,24.8,6.8,46,30.07,10.0,SW,13.8,21.9,N/A,,Clear,230,2013-11-25 04:15:00
10:35 PM,24.8,5.0,43,30.06,10.0,WSW,19.6,28.8,N/A,,Clear,240,2013-11-25 04:35:00
10:55 PM,24.8,6.8,46,30.06,10.0,WSW,15.0,27.6,N/A,,Clear,240,2013-11-25 04:55:00
11:15 PM,24.8,6.8,46,30.06,10.0,WSW,13.8,20.7,N/A,,Clear,240,2013-11-25 05:15:00
11:35 PM,24.8,5.0,43,30.05,10.0,WSW,13.8,25.3,N/A,,Clear,240,2013-11-25 05:35:00
11:55 PM,24.8,5.0,43,30.03,10.0,WSW,11.5,27.6,N/A,,Clear,240,2013-11-25 05:55:00